Orbital Elements at Epoch 2459200.5 (2020-Dec-17.0) TDB
Reference: JPL 19 (heliocentric ecliptic J2000)
Element | Value | Uncertainty (1-sigma) | Units |
e | .04540759828509463 | 5.2798e-08 | |
a | 2.518732688578317 | 1.3975e-08 | au |
q | 2.404363086467816 | 1.3312e-07 | au |
i | 1.993617224564347 | 5.1432e-06 | deg |
node | 204.5404647457979 | 0.00013468 | deg |
peri | 123.0931480575357 | 0.00014354 | deg |
M | 217.1231315847375 | 4.8358e-05 | deg |
tp | 2459779.970013166063 (2022-Jul-19.47001317) | 0.00019692 | TDB |
period | 1460.062829299094 4.00 | 1.2151e-05 3.327e-08 | d yr |
n | .246564731856655 | 2.052e-09 | deg/d |
Q | 2.633102290688818 | 1.4609e-08 | au |
|
| | Orbit Determination Parameters
Additional Information
|